Location: Ca�n Batista
(41.4099°N, 1.7752°E)
Time: 14:49:42
(UTC+00:00)

Cosmos 1470 Rocket - Pass Details

Date: 03 March 2021
Orbit: 603 x 634 km, 82.5° (Epoch: 21 April)

Event Time Altitude Azimuth Distance (km) Brightness Sun altitude
Rises 18:33:28 0° 180° (S) 2,915 7.0 -9.7°
Reaches altitude 10° 18:35:42 10° 177° (S) 2,010 6.2 -10.1°
Maximum altitude 18:40:07 68° 96° (E) 683 3.5 -10.9°
Drops below altitude 10° 18:44:34 10° 13° (NNE) 2,015 6.1 -11.8°
Sets 18:46:49 0° 11° (N) 2,923 6.9 -12.2°
